Location: Harwich
(41.7160°N, 69.9939°W)
Time: 13:56:17
(UTC+02:00)

CUTE 1.7 + AOD 2 - Visible Passes

Search period start: 17 September 2024 00:00
Search period end: 27 September 2024 00:00
Orbit: 563 x 579 km, 97.8° (Epoch: 16 September)

Date Brightness Start Highest point End Pass type
(mag) Time Alt. Az. Time Alt. Az. Time Alt. Az.
17 Sep ? 09:37:25 10° NE 09:40:56 27° E 09:41:09 27° ESE visible
17 Sep ? 11:12:40 10° NNW 11:15:57 24° WNW 11:17:18 20° W visible
18 Sep ? 09:39:36 10° NE 09:43:12 29° E 09:43:20 29° E visible
18 Sep ? 11:14:58 10° NNW 11:18:11 23° WNW 11:19:28 19° W visible
19 Sep ? 09:41:47 10° NE 09:45:25 31° E 09:45:29 31° E visible
19 Sep ? 11:17:15 10° NNW 11:20:23 21° WNW 11:21:37 19° W visible
20 Sep ? 09:43:56 10° NNE 09:47:36 32° E 09:47:36 32° E visible
20 Sep ? 11:19:31 10° NNW 11:22:33 20° WNW 11:23:45 18° W visible
21 Sep ? 09:46:04 10° NNE 09:49:42 34° E 09:49:42 34° E visible
21 Sep ? 11:21:46 10° NNW 11:24:43 20° WNW 11:25:50 18° W visible
22 Sep ? 09:48:11 10° NNE 09:51:46 36° E 09:51:46 36° E visible
22 Sep ? 11:23:59 10° NNW 11:26:51 19° WNW 11:27:54 17° W visible
23 Sep ? 09:50:16 10° NNE 09:53:49 38° E 09:53:49 38° E visible
23 Sep ? 11:26:11 10° NNW 11:28:57 18° WNW 11:29:57 16° W visible
24 Sep ? 09:52:20 10° NNE 09:55:50 39° E 09:55:50 39° E visible
24 Sep ? 11:28:23 10° NNW 11:31:02 17° WNW 11:31:59 16° W visible
25 Sep ? 09:54:24 10° NNE 09:57:50 41° ENE 09:57:50 41° ENE visible
25 Sep ? 11:30:33 10° NNW 11:33:06 16° WNW 11:33:58 15° W visible
26 Sep ? 09:56:25 10° NNE 09:59:49 42° ENE 09:59:49 42° ENE visible
26 Sep ? 11:32:41 10° NNW 11:35:08 15° WNW 11:35:56 15° WNW visible
